When you browse on this site, cookies collect data to enhance your experience and personalize the content and advertising you see.
Visit our Privacy Policy to learn more. By continuing to use the site, you agree to this use of cookies and data.
  • In United Kingdom
  • List of Countries
  • For 7 days
  • Water Temperature
  • Weather Map
  • Weather Widgets
  • user-avatar
    Login

    Hourly Weather Brasília

    Today, 5 June, Friday

    Time Temperature Precipitation Wind Pressure Humidity
    00:00 +19°C° 0 mm 2 mps 668 mmHg 87%
    01:00 +18°C° 0 mm 2 mps 668 mmHg 87%
    02:00 +18°C° 0 mm 2 mps 668 mmHg 88%
    03:00 +18°C° 0 mm 2 mps 667 mmHg 88%
    04:00 +17°C° 0 mm 2 mps 667 mmHg 90%
    05:00 +17°C° 0 mm 2 mps 667 mmHg 91%
    06:00 +17°C° 0 mm 2 mps 667 mmHg 93%
    07:00 +18°C° 0 mm 3 mps 668 mmHg 88%
    08:00 +19°C° 0 mm 3 mps 669 mmHg 84%
    09:00 +21°C° 0 mm 4 mps 670 mmHg 79%
    10:00 +22°C° 0 mm 4 mps 670 mmHg 74%
    11:00 +23°C° 0 mm 4 mps 670 mmHg 69%
    12:00 +25°C° 0 mm 4 mps 670 mmHg 63%
    13:00 +26°C° 0 mm 3 mps 670 mmHg 62%
    14:00 +26°C° 0 mm 3 mps 669 mmHg 61%
    15:00 +26°C° 0 mm 3 mps 669 mmHg 59%
    16:00 +25°C° 0 mm 3 mps 669 mmHg 66%
    17:00 +22°C° 0 mm 3 mps 668 mmHg 72%
    18:00 +21°C° 0 mm 2 mps 668 mmHg 78%
    19:00 +20°C° 0 mm 2 mps 668 mmHg 80%
    20:00 +20°C° 0 mm 2 mps 668 mmHg 82%
    21:00 +19°C° 0 mm 2 mps 669 mmHg 85%
    22:00 +18°C° 0 mm 2 mps 669 mmHg 84%
    23:00 +18°C° 0 mm 2 mps 669 mmHg 84%

    Tomorrow, 6 June, Saturday

    Time Temperature Precipitation Wind Pressure Humidity
    00:00 +18°C° 0 mm 2 mps 668 mmHg 84%
    01:00 +17°C° 0 mm 2 mps 668 mmHg 84%
    02:00 +17°C° 0 mm 2 mps 668 mmHg 84%
    03:00 +17°C° 0 mm 2 mps 668 mmHg 85%
    04:00 +16°C° 0 mm 2 mps 668 mmHg 86%
    05:00 +16°C° 0 mm 2 mps 668 mmHg 86%
    06:00 +16°C° 0 mm 2 mps 668 mmHg 87%
    07:00 +17°C° 0 mm 2 mps 669 mmHg 83%
    08:00 +18°C° 0 mm 3 mps 669 mmHg 79%
    09:00 +20°C° 0 mm 3 mps 670 mmHg 74%
    10:00 +21°C° 0 mm 3 mps 670 mmHg 68%
    11:00 +24°C° 0 mm 3 mps 670 mmHg 63%
    12:00 +26°C° 0 mm 2 mps 670 mmHg 57%
    13:00 +26°C° 0 mm 2 mps 670 mmHg 55%
    14:00 +27°C° 0 mm 2 mps 669 mmHg 53%
    15:00 +27°C° 0 mm 2 mps 669 mmHg 51%
    16:00 +25°C° 0 mm 2 mps 668 mmHg 57%
    17:00 +24°C° 0 mm 2 mps 668 mmHg 64%
    18:00 +21°C° 0 mm 2 mps 667 mmHg 70%
    19:00 +20°C° 0 mm 2 mps 668 mmHg 73%
    20:00 +19°C° 0 mm 2 mps 668 mmHg 75%
    21:00 +19°C° 0 mm 2 mps 668 mmHg 77%
    22:00 +18°C° 0 mm 2 mps 668 mmHg 79%
    23:00 +18°C° 0 mm 2 mps 668 mmHg 80%

    Day after tomorrow, 7 June, Sunday

    Time Temperature Precipitation Wind Pressure Humidity
    00:00 +18°C° 0 mm 2 mps 668 mmHg 81%
    01:00 +17°C° 0 mm 2 mps 668 mmHg 82%
    02:00 +17°C° 0 mm 2 mps 668 mmHg 83%
    03:00 +17°C° 0 mm 2 mps 668 mmHg 84%
    04:00 +16°C° 0 mm 2 mps 668 mmHg 85%
    05:00 +16°C° 0 mm 2 mps 668 mmHg 86%
    06:00 +16°C° 0 mm 2 mps 668 mmHg 87%
    07:00 +17°C° 0 mm 3 mps 669 mmHg 82%
    08:00 +19°C° 0 mm 3 mps 669 mmHg 77%
    09:00 +20°C° 0 mm 4 mps 670 mmHg 72%
    10:00 +21°C° 0 mm 3 mps 670 mmHg 67%
    11:00 +24°C° 0 mm 3 mps 670 mmHg 62%
    12:00 +25°C° 0 mm 3 mps 670 mmHg 56%
    13:00 +26°C° 0 mm 3 mps 670 mmHg 55%
    14:00 +26°C° 0 mm 2 mps 669 mmHg 53%
    15:00 +26°C° 0 mm 2 mps 669 mmHg 52%
    16:00 +25°C° 0 mm 2 mps 668 mmHg 58%
    17:00 +23°C° 0 mm 2 mps 668 mmHg 64%
    18:00 +21°C° 0 mm 2 mps 668 mmHg 71%
    19:00 +20°C° 0 mm 2 mps 668 mmHg 73%
    20:00 +19°C° 0 mm 2 mps 668 mmHg 74%
    21:00 +18°C° 0 mm 2 mps 668 mmHg 76%
    22:00 +18°C° 0 mm 2 mps 668 mmHg 79%
    23:00 +18°C° 0 mm 2 mps 668 mmHg 81%

    8 June, Monday

    Time Temperature Precipitation Wind Pressure Humidity
    00:00 +17°C° 0 mm 2 mps 668 mmHg 84%
    01:00 +17°C° 0 mm 2 mps 668 mmHg 85%
    02:00 +17°C° 0 mm 2 mps 667 mmHg 86%
    03:00 +16°C° 0 mm 2 mps 667 mmHg 88%
    04:00 +16°C° 0 mm 2 mps 667 mmHg 88%
    05:00 +16°C° 0 mm 2 mps 667 mmHg 89%
    06:00 +16°C° 0 mm 2 mps 667 mmHg 89%
    07:00 +17°C° 0 mm 2 mps 668 mmHg 84%
    08:00 +18°C° 0 mm 3 mps 669 mmHg 79%
    09:00 +20°C° 0 mm 3 mps 669 mmHg 73%
    10:00 +21°C° 0 mm 3 mps 669 mmHg 68%
    11:00 +24°C° 0 mm 3 mps 669 mmHg 63%
    12:00 +25°C° 0 mm 3 mps 670 mmHg 57%
    13:00 +25°C° 0 mm 3 mps 669 mmHg 56%
    14:00 +26°C° 0 mm 3 mps 668 mmHg 54%
    15:00 +26°C° 0 mm 2 mps 668 mmHg 53%
    16:00 +25°C° 0 mm 2 mps 668 mmHg 59%
    17:00 +23°C° 0 mm 2 mps 667 mmHg 65%
    18:00 +20°C° 0 mm 2 mps 667 mmHg 72%
    19:00 +20°C° 0 mm 2 mps 667 mmHg 75%
    20:00 +19°C° 0 mm 2 mps 667 mmHg 78%
    21:00 +18°C° 0 mm 2 mps 667 mmHg 81%
    22:00 +18°C° 0 mm 2 mps 667 mmHg 82%
    23:00 +17°C° 0 mm 2 mps 667 mmHg 84%

    9 June, Tuesday

    Time Temperature Precipitation Wind Pressure Humidity
    00:00 +17°C° 0 mm 2 mps 667 mmHg 86%
    01:00 +17°C° 0 mm 2 mps 667 mmHg 86%
    02:00 +16°C° 0 mm 2 mps 666 mmHg 86%
    03:00 +16°C° 0 mm 2 mps 666 mmHg 86%
    04:00 +16°C° 0 mm 2 mps 666 mmHg 84%
    05:00 +15°C° 0 mm 2 mps 666 mmHg 82%
    06:00 +15°C° 0 mm 2 mps 666 mmHg 81%
    07:00 +16°C° 0 mm 2 mps 667 mmHg 71%
    08:00 +18°C° 0 mm 3 mps 667 mmHg 62%
    09:00 +20°C° 0 mm 4 mps 668 mmHg 53%
    10:00 +21°C° 0 mm 4 mps 668 mmHg 49%
    11:00 +23°C° 0 mm 4 mps 668 mmHg 45%
    12:00 +25°C° 0 mm 4 mps 668 mmHg 42%
    13:00 +26°C° 0 mm 3 mps 668 mmHg 42%
    14:00 +26°C° 0 mm 3 mps 667 mmHg 42%
    15:00 +26°C° 0 mm 3 mps 667 mmHg 42%
    16:00 +24°C° 0 mm 2 mps 666 mmHg 48%
    17:00 +21°C° 0 mm 2 mps 666 mmHg 55%
    18:00 +21°C° 0 mm 1 mps 665 mmHg 61%
    19:00 +20°C° 0 mm 1 mps 666 mmHg 63%
    20:00 +19°C° 0 mm 1 mps 666 mmHg 65%
    21:00 +18°C° 0 mm 1 mps 666 mmHg 67%
    22:00 +18°C° 0 mm 1 mps 666 mmHg 69%
    23:00 +18°C° 0 mm 1 mps 666 mmHg 71%

    10 June, Wednesday

    Time Temperature Precipitation Wind Pressure Humidity
    00:00 +16°C° 0 mm 1 mps 666 mmHg 73%
    01:00 +16°C° 0 mm 1 mps 666 mmHg 75%
    02:00 +16°C° 0 mm 1 mps 665 mmHg 76%
    03:00 +16°C° 0 mm 1 mps 665 mmHg 77%
    04:00 +15°C° 0 mm 1 mps 665 mmHg 79%
    05:00 +15°C° 0 mm 1 mps 665 mmHg 80%
    06:00 +15°C° 0 mm 2 mps 665 mmHg 82%
    07:00 +17°C° 0 mm 2 mps 666 mmHg 78%
    08:00 +18°C° 0 mm 2 mps 667 mmHg 74%
    09:00 +20°C° 0 mm 3 mps 668 mmHg 69%
    10:00 +22°C° 0 mm 3 mps 668 mmHg 63%
    11:00 +24°C° 0 mm 3 mps 668 mmHg 56%
    12:00 +26°C° 0 mm 3 mps 668 mmHg 50%
    13:00 +26°C° 0 mm 2 mps 667 mmHg 47%
    14:00 +27°C° 0 mm 2 mps 667 mmHg 44%
    15:00 +27°C° 0 mm 2 mps 666 mmHg 41%
    16:00 +25°C° 0 mm 2 mps 666 mmHg 48%
    17:00 +23°C° 0 mm 2 mps 666 mmHg 55%
    18:00 +21°C° 0 mm 1 mps 665 mmHg 62%
    19:00 +21°C° 0 mm 1 mps 665 mmHg 64%
    20:00 +20°C° 0 mm 1 mps 666 mmHg 66%
    21:00 +19°C° 0 mm 1 mps 666 mmHg 69%
    22:00 +19°C° 0 mm 1 mps 666 mmHg 70%
    23:00 +19°C° 0 mm 1 mps 666 mmHg 70%
    Show more